User: anonymous   Login
Location: Newark
(35.8833°N, 14.5000°E)
Time: 09:40:19
(UTC+00:00)
Language:

Tiros 1 despin weight - Orbit

View from above orbital plane
View from above orbital plane
View from above satellite
View from above satellite

Ground track
Ground track

The orbit data is extracted from the following two-line orbital elements,

1   115U 60002D   19315.23164959  .00000004  00000-0  27635-4 0  9994
2   115  48.1666 248.3184 0034750   1.7701 358.3329 14.83505789180423
Epoch (UTC): 11 November 2019 05:33:34
Eccentricity: 0.0034750
inclination: 48.1666°
perigee height: 594 km
apogee height: 642 km
right ascension of ascending node: 248.3184°
argument of perigee: 1.7701°
revolutions per day: 14.83505789
mean anomaly at epoch: 358.3329°
orbit number at epoch: 18042

The dashed part of the orbit path shows where the satellite is in the earth's shadow,  

DLR